Flag for Denmark Weather past 2 weeks in Esbjerg, Denmark

Now
54 °F

Low clouds.


Feels Like: 51 °F
Forecast: 56 / 58 °F
Wind: 9 mph from South

Location: Esbjerg Airport

Current Time: Oct 23, 2014 at 8:55:53 PM

Latest Report: Oct 23, 2014 at 8:20 PM


Visibility: 3 mi

Pressure: 30.04 "Hg

Humidity: 100%

Dew point: 54 °F

Location of EsbjergLocation

Historic Weather in Esbjerg — Graph

°F

Esbjerg temperature yesterday

Maximum temperature yesterday: 55 °F (at 11:50 AM)
Minimum temperature yesterday: 41 °F (at 5:50 AM)
Average temperature yesterday: 49 °F

Past Weeks' High & Low Weather Summary

 TemperatureHumidityPressure
High63 °F (Oct 11, 12:50 PM)100% (Oct 11, 3:50 AM)30.07 "Hg (Oct 11, 3:50 AM)
Low41 °F (Oct 22, 5:50 AM)67% (Oct 20, 12:20 PM)29.21 "Hg (Oct 21, 5:50 PM)
Average54 °F91%29.76 "Hg
* Reported Oct 8 7:20 PM — Oct 23 7:50 PM, Esbjerg, Weather by CustomWeather, © 2014

Note: Actual official high and low records may vary slightly from our data, if they occured in-between our weather recording intervals... More about our weather records

Advertising

Esbjerg weather history for previous 24 hours

 ConditionsComfort  
Time TempWeatherWind HumidityBarometerVisibility
7:50 PM
Oct 23
54 °FSprinkles. Fog.9 mph100%30.04 "Hg2 mi
7:20 PM54 °FPassing clouds.9 mph100%30.04 "Hg4 mi
6:50 PM54 °FPartly sunny.8 mph100%30.04 "Hg4 mi
6:20 PM55 °FOvercast.7 mph94%30.04 "Hg4 mi
5:50 PM55 °FSprinkles. Fog.8 mph94%30.04 "Hg3 mi
5:20 PM55 °FDrizzle. Partly sunny.7 mph94%30.04 "Hg5 mi
4:50 PM55 °FDrizzle. Partly sunny.9 mph88%30.07 "Hg6 mi
4:20 PM55 °FLight rain. Partly sunny.10 mph94%30.07 "Hg3 mi
3:50 PM55 °FSprinkles. Fog.9 mph94%30.07 "Hg2 mi
3:20 PM55 °FPartly sunny.7 mph94%30.07 "Hg3 mi
2:50 PM55 °FLight rain. Fog.8 mph94%30.07 "Hg2 mi
2:20 PM54 °FLow clouds.9 mph100%30.07 "Hg4 mi
1:50 PM54 °FSprinkles. Fog.8 mph94%30.07 "Hg3 mi
1:20 PM54 °FLow clouds.10 mph94%30.07 "HgN/A
12:50 PM54 °FLow clouds.9 mph88%30.07 "HgN/A
12:20 PM52 °FOvercast.9 mph94%30.07 "HgN/A
11:50 AM52 °FOvercast.8 mph88%30.07 "HgN/A
11:20 AM52 °FDrizzle. Overcast.8 mph88%30.07 "HgN/A
10:50 AM52 °FOvercast.7 mph82%30.07 "HgN/A
10:20 AM52 °FOvercast.7 mph82%30.07 "HgN/A
9:50 AM52 °FOvercast.8 mph77%30.07 "HgN/A
9:20 AM50 °FPartly sunny.7 mph88%30.07 "HgN/A
8:50 AM50 °FOvercast.6 mph82%30.07 "HgN/A
8:20 AM50 °FPassing clouds.6 mph82%30.07 "HgN/A
7:50 AM50 °FPassing clouds.3 mph82%30.07 "HgN/A
7:20 AM50 °FPassing clouds.3 mph82%30.07 "HgN/A
6:50 AM50 °FPassing clouds.3 mph82%30.04 "HgN/A
6:20 AM48 °FPartly cloudy.2 mph87%30.04 "HgN/A
5:50 AM48 °FPassing clouds.2 mph87%30.04 "HgN/A
5:20 AM50 °FPartly cloudy.2 mph76%30.04 "HgN/A
4:50 AM50 °FPassing clouds.3 mph82%30.04 "HgN/A
4:20 AM50 °FOvercast.2 mph88%30.04 "HgN/A
3:50 AM50 °FOvercast.3 mph88%30.04 "HgN/A
3:20 AM50 °FOvercast.3 mph88%30.04 "HgN/A
2:50 AM50 °FOvercast.2 mph88%30.04 "HgN/A
2:20 AM50 °FOvercast.2 mph88%30.04 "HgN/A
1:50 AM50 °FOvercast.3 mph82%30.04 "HgN/A
1:20 AM50 °FOvercast.5 mph88%30.04 "HgN/A
12:50 AM50 °FOvercast.6 mph88%30.04 "HgN/A
12:20 AM50 °FOvercast.7 mph88%30.01 "HgN/A
11:50 PM
Oct 22
50 °FOvercast.7 mph88%30.01 "HgN/A
11:20 PM50 °FOvercast.6 mph94%30.01 "HgN/A
10:50 PM50 °FOvercast.6 mph94%30.01 "HgN/A
10:20 PM52 °FOvercast.9 mph88%30.01 "HgN/A
9:50 PM50 °FLow clouds.8 mph100%29.98 "Hg5 mi
9:20 PM50 °FFog.10 mph100%29.98 "Hg3 mi
8:50 PM52 °FFog.13 mph94%29.98 "Hg3 mi
8:20 PM50 °FSprinkles. Low clouds.10 mph100%29.95 "Hg3 mi
Weather by CustomWeather, © 2014

See weather overviewHow to use our weather pages